Regional Weather Roundup
Issued by NWS

Home | Current Version | Previous Version | Graphics & Text | Print | Product List | Glossary On
Versions: 1 2 3 4 5 6 7 8 9 10 11 12 13 14 15 16 17 18 19 20 21 22 23 24 25 26 27 28 29 30 31 32 33 34 35 36 37 38 39 40 41 42 43 44 45 46 47 48 49 50
000
ASUS43 KIND 061109
RWRIN

WEATHER ROUNDUP FOR INDIANA
NATIONAL WEATHER SERVICE INDIANAPOLIS IN
700 AM EDT MON JUL 06 2015

NOTE: "FAIR" INDICATES FEW OR NO CLOUDS BELOW 12,000 FEET WITH NO
SIGNIFICANT WEATHER AND/OR OBSTRUCTIONS TO VISIBILITY.

* - STATION DOES NOT REPORT WEATHER SUCH AS PRECIPITATION OR FOG.

+ - STATION NOT QUALITY CONTROLLED BY THE NATIONAL WEATHER SERVICE.
    USE DATA WITH CAUTION...ESPECIALLY DEWPOINT AND RELATIVE
    HUMIDITY OBSERVATIONS.

INZ001>003-010>013-019-020-061200-
NORTHWEST INDIANA

CITY           SKY/WX    TMP DP  RH WIND       PRES   REMARKS
GARY /AIRPORT/ CLEAR    N/A N/A N/A S5        30.00F FOG
KNOX *+        CLEAR     63  63 100 S5        30.02F
LA PORTE +     CLEAR    N/A N/A N/A S3        30.03F FOG
MICHIGAN CITY+ CLEAR     68  66  94 S6        30.02S FOG
MONTICELLO +   CLEAR     64  64  99 S3        30.04S FOG
RENSSELAER +     N/A     64  64 100 SE5       30.03F FOG
VALPARAISO     CLEAR     65  64  97 S6        30.02F FOG

$$

LMZ046-743>745-061200-
SOUTHERN LAKE MICHIGAN

STATION/POSITION TIME  TEMP    WIND        PRES    WAVE
                       AIR SEA DIR/SP/G            HT
                 (UTC) (F)     (DEG/KT/KT) (MB)    (FT)
BURNS HARBOR     1100   69     190/  9/ 14 1016.3S
MICHIGAN CITY    1100   69     150/ 11/ 15   N/A
5NW MICH CITY    1100   67 66  190/ 10/ 12   N/A     1

$$

INZ004-005-014>016-021>024-061200-
NORTH CENTRAL INDIANA

CITY           SKY/WX    TMP DP  RH WIND       PRES   REMARKS
ELKHART        CLEAR     61  59  94 CALM      30.04  FOG
GOSHEN         CLEAR     61  59  93 SE6       30.05R FOG
LOGANSPORT +   CLEAR     61  59  94 CALM      30.07R FOG
PERU/GRISSOM   CLEAR     65  62  91 S3        30.06R
ROCHESTER +    CLEAR     68  64  88 CALM      30.06S FOG
SOUTH BEND     CLEAR     66  60  81 S6        30.03F
WARSAW +         N/A     59  59 100 CALM      30.07R FOG

$$

INZ006>009-017-018-025>027-061200-
NORTHEAST INDIANA

CITY           SKY/WX    TMP DP  RH WIND       PRES   REMARKS
ANGOLA *+        N/A     59  57  94 CALM      30.07S
AUBURN +       FOG       57  55  94 CALM      30.08S VSB 1/2
FORT WAYNE     CLEAR     61  58  90 CALM      30.08S FOG
HUNTINGTON +   CLEAR     60  59  97 CALM      30.07S FOG

$$

INZ028-029-035-036-043>045-051>053-061200-
WEST CENTRAL INDIANA

CITY           SKY/WX    TMP DP  RH WIND       PRES   REMARKS
CRAWFORDSVL +    N/A     62  61  97 CALM      30.07S FOG
GREENCASTLE +  MOCLDY    63  61  94 CALM      30.08S FOG
LAFAYETTE      CLEAR     63  62  97 CALM      30.05S FOG
TERRE HAUTE    CLEAR     66  65  96 CALM      30.07S FOG

$$

INZ030>032-037>040-046>048-054>057-064-065-061200-
CENTRAL INDIANA

CITY           SKY/WX    TMP DP  RH WIND       PRES   REMARKS
CP ATTERBURY + FOG       57  55  94 CALM      30.10R VSB 1
COLUMBUS       CLEAR     59  57  94 CALM      30.10  FOG
FISHERS *+     CLEAR     61  61 100 CALM      30.09R
FRANKFORT +    CLEAR    N/A N/A N/A CALM      30.09R FOG
GREENWOOD *+   CLEAR     63  61  94 CALM      30.09R
INDIANAPOLIS   CLEAR     64  62  93 S5        30.07R FOG
-EAGLE CREEK   CLEAR     64  63  96 SE5       30.07S FOG
KOKOMO *+      CLEAR     63  59  88 SE3       30.07R
MARION +       CLEAR     59  58  98 SE3       30.08S FOG
MT COMFORT *+    N/A     61 N/A N/A S3        30.09S
SHELBYVILLE    CLEAR     63  60  90 S3        30.09R FOG
ZIONSVILLE +     N/A     62  59  90 CALM      30.08S FOG

$$

INZ033-034-041-042-049-050-058-059-061200-
EAST CENTRAL INDIANA

CITY           SKY/WX    TMP DP  RH WIND       PRES   REMARKS
MUNCIE         CLEAR     63  61  93 S5        30.09R FOG

$$

INZ060-061-067>069-081>083-085>088-061200-
SOUTHWEST INDIANA

CITY           SKY/WX    TMP DP  RH WIND       PRES   REMARKS
EVANSVILLE     CLEAR     69  67  93 CALM      30.08R FOG
HUNTINGBURG *+ CLEAR     66  64  94 SE6       30.09S
WASHINGTON +   PTCLDY    66  62  87 SE5       30.07S FOG

$$

INZ062-063-066-070>080-084-089>092-061200-
SOUTH CENTRAL AND SOUTHEAST INDIANA

CITY           SKY/WX    TMP DP  RH WIND       PRES   REMARKS
BLOOMINGTON    CLEAR     65  63  93 CALM      30.09R
MADISON *+       N/A     61  59  94 CALM      30.13R
NORTH VERNON + CLEAR     61  61 100 CALM      30.10R FOG
SEYMOUR +      FOG       61  61 100 CALM      30.10R VSB 1/4

$$




USA.gov is the U.S. government's official web portal to all federal, state and local government web resources and services.